DAL1196 KMLB-KATL

Flight info

Callsign DAL1196
Flight time 1h 9m
Altitude 37000
Route WORMS JEEMY ACCHE PAINN SHRKS LAIRI LARZZ JJEDI4
Aircraft B738/M-SDE2E3FGHIRWXY/LB1

Departure

Time 2026-05-04 22:48
Airport Melbourne Orlando International Airport (KMLB)

Arrival

Time 2026-05-04 23:57
Airport Hartsfield Jackson Atlanta International Airport (KATL)
Time Latitude Longitude Altitude Speed Heading
2026-05-04 22:19 28.09841 -80.62997 31 ft 0 kts 316°
2026-05-04 22:32 28.09829 -80.62984 31 ft 2 kts 316°
2026-05-04 22:32 28.09818 -80.62972 31 ft 2 kts 317°
2026-05-04 22:33 28.09807 -80.62961 30 ft 0 kts 317°
2026-05-04 22:37 28.09809 -80.62961 30 ft 1 kts 336°
2026-05-04 22:37 28.09829 -80.62948 31 ft 5 kts 32°
2026-05-04 22:38 28.09863 -80.62932 31 ft 5 kts 14°
2026-05-04 22:38 28.09907 -80.62924 31 ft 8 kts
2026-05-04 22:38 28.09964 -80.62952 31 ft 11 kts 307°
2026-05-04 22:38 28.09986 -80.63047 30 ft 14 kts 281°
2026-05-04 22:39 28.09995 -80.63096 30 ft 0 kts 281°
2026-05-04 22:39 28.09995 -80.63099 30 ft 2 kts 281°
2026-05-04 22:40 28.10008 -80.63140 29 ft 10 kts 298°
2026-05-04 22:40 28.10065 -80.63216 35 ft 14 kts 313°
2026-05-04 22:40 28.10112 -80.63308 31 ft 16 kts 277°
2026-05-04 22:40 28.10111 -80.63438 28 ft 16 kts 268°
2026-05-04 22:41 28.10108 -80.63564 29 ft 16 kts 268°
2026-05-04 22:41 28.10102 -80.63683 31 ft 15 kts 267°
2026-05-04 22:41 28.10097 -80.63800 31 ft 14 kts 267°
2026-05-04 22:41 28.10093 -80.63911 30 ft 14 kts 268°
2026-05-04 22:42 28.10089 -80.64018 31 ft 13 kts 266°
2026-05-04 22:42 28.10085 -80.64120 34 ft 13 kts 267°
2026-05-04 22:42 28.10080 -80.64219 35 ft 12 kts 267°
2026-05-04 22:42 28.10075 -80.64330 34 ft 18 kts 267°
2026-05-04 22:43 28.10067 -80.64506 33 ft 24 kts 267°
2026-05-04 22:43 28.10059 -80.64687 34 ft 23 kts 267°
2026-05-04 22:43 28.10052 -80.64863 32 ft 22 kts 268°
2026-05-04 22:43 28.10045 -80.65034 32 ft 21 kts 267°
2026-05-04 22:44 28.10037 -80.65200 34 ft 21 kts 266°
2026-05-04 22:44 28.10029 -80.65361 34 ft 20 kts 267°
2026-05-04 22:44 28.10022 -80.65517 35 ft 20 kts 267°
2026-05-04 22:44 28.10014 -80.65669 37 ft 19 kts 267°
2026-05-04 22:45 28.10008 -80.65815 39 ft 18 kts 266°
2026-05-04 22:45 28.09997 -80.66011 40 ft 0 kts 266°
2026-05-04 22:45 28.09997 -80.66012 40 ft 1 kts 266°
2026-05-04 22:46 28.09995 -80.66047 40 ft 10 kts 269°
2026-05-04 22:46 28.10048 -80.66097 40 ft 11 kts 354°
2026-05-04 22:46 28.10120 -80.66092 37 ft 9 kts 37°
2026-05-04 22:46 28.10131 -80.66053 37 ft 0 kts 84°
2026-05-04 22:47 28.10131 -80.66051 37 ft 0 kts 84°
2026-05-04 22:47 28.10136 -80.65966 36 ft 41 kts 87°
2026-05-04 22:48 28.10168 -80.65285 36 ft 129 kts 85°
2026-05-04 22:48 28.10241 -80.64065 490 ft 170 kts 84°
2026-05-04 22:48 28.10307 -80.62633 1360 ft 187 kts 86°
2026-05-04 22:48 28.10377 -80.61124 1834 ft 195 kts 86°
2026-05-04 22:49 28.10450 -80.59565 2005 ft 203 kts 85°
2026-05-04 22:49 28.10524 -80.57975 2019 ft 200 kts 85°
2026-05-04 22:49 28.10597 -80.56409 2000 ft 199 kts 86°
2026-05-04 22:49 28.10678 -80.54827 2214 ft 203 kts 82°
2026-05-04 22:50 28.11204 -80.53331 2799 ft 215 kts 51°
2026-05-04 22:50 28.12479 -80.52356 3381 ft 233 kts 20°
2026-05-04 22:50 28.14168 -80.52257 3807 ft 256 kts 348°
2026-05-04 22:50 28.15800 -80.53142 4551 ft 263 kts 325°
2026-05-04 22:51 28.17299 -80.54320 4909 ft 263 kts 323°
2026-05-04 22:51 28.18798 -80.55527 5632 ft 267 kts 322°
2026-05-04 22:51 28.20247 -80.56852 6624 ft 268 kts 316°
2026-05-04 22:51 28.21645 -80.58260 7558 ft 270 kts 315°
2026-05-04 22:52 28.23036 -80.59680 8568 ft 268 kts 314°
2026-05-04 22:52 28.24438 -80.61108 9446 ft 274 kts 315°
2026-05-04 22:52 28.25863 -80.62551 10373 ft 276 kts 315°
2026-05-04 22:52 28.27311 -80.64008 11186 ft 280 kts 315°
2026-05-04 22:53 28.28818 -80.65520 11617 ft 302 kts 316°
2026-05-04 22:53 28.30459 -80.67164 11819 ft 327 kts 316°
2026-05-04 22:53 28.32231 -80.68933 12092 ft 348 kts 316°
2026-05-04 22:53 28.34075 -80.70767 12708 ft 357 kts 317°
2026-05-04 22:54 28.35951 -80.72628 13483 ft 360 kts 317°
2026-05-04 22:54 28.37834 -80.74493 13889 ft 358 kts 317°
2026-05-04 22:54 28.39719 -80.76362 14011 ft 360 kts 317°
2026-05-04 22:54 28.41611 -80.78240 14022 ft 363 kts 317°
2026-05-04 22:55 28.43515 -80.80132 14029 ft 363 kts 317°
2026-05-04 22:55 28.45414 -80.82018 14027 ft 362 kts 317°
2026-05-04 22:55 28.47309 -80.83901 14027 ft 361 kts 317°
2026-05-04 22:55 28.49201 -80.85784 14026 ft 361 kts 317°
2026-05-04 22:56 28.51091 -80.87666 14028 ft 361 kts 317°
2026-05-04 22:56 28.52958 -80.89525 14031 ft 362 kts 317°
2026-05-04 22:56 28.54876 -80.91436 14023 ft 362 kts 317°
2026-05-04 22:56 28.56744 -80.93299 14029 ft 363 kts 317°
2026-05-04 22:57 28.58696 -80.95247 14366 ft 371 kts 317°
2026-05-04 22:57 28.60621 -80.97168 15280 ft 367 kts 317°
2026-05-04 22:57 28.62525 -80.99068 15755 ft 370 kts 317°
2026-05-04 22:57 28.64465 -81.01007 16002 ft 372 kts 316°
2026-05-04 22:58 28.66410 -81.02951 16024 ft 372 kts 316°
2026-05-04 22:58 28.68383 -81.04925 16028 ft 373 kts 316°
2026-05-04 22:58 28.70334 -81.06876 16027 ft 374 kts 316°
2026-05-04 22:58 28.72289 -81.08833 16026 ft 374 kts 316°
2026-05-04 22:59 28.74217 -81.10764 16020 ft 374 kts 316°
2026-05-04 22:59 28.76169 -81.12721 16017 ft 374 kts 316°
2026-05-04 22:59 28.78123 -81.14679 16019 ft 374 kts 316°
2026-05-04 22:59 28.80079 -81.16642 16098 ft 377 kts 316°
2026-05-04 23:00 28.82059 -81.18630 16710 ft 379 kts 316°
2026-05-04 23:00 28.84032 -81.20611 17591 ft 377 kts 316°
2026-05-04 23:00 28.86001 -81.22589 18332 ft 379 kts 315°
2026-05-04 23:00 28.87985 -81.24584 18895 ft 382 kts 315°
2026-05-04 23:01 28.89984 -81.26596 19486 ft 384 kts 315°
2026-05-04 23:01 28.91992 -81.28617 20102 ft 386 kts 315°
2026-05-04 23:01 28.94010 -81.30649 20696 ft 388 kts 315°
2026-05-04 23:01 28.96040 -81.32694 21267 ft 390 kts 315°
2026-05-04 23:02 28.98078 -81.34748 21876 ft 392 kts 314°
2026-05-04 23:02 29.00130 -81.36807 22466 ft 394 kts 316°
2026-05-04 23:02 29.02363 -81.38664 23003 ft 402 kts 324°
2026-05-04 23:02 29.04864 -81.40148 23530 ft 407 kts 329°
2026-05-04 23:03 29.07426 -81.41557 23975 ft 411 kts 331°
2026-05-04 23:03 29.10145 -81.42662 24403 ft 419 kts 339°
2026-05-04 23:03 29.13034 -81.43314 24845 ft 428 kts 348°
2026-05-04 23:03 29.16012 -81.43612 25274 ft 431 kts 349°
2026-05-04 23:04 29.19015 -81.43867 25686 ft 434 kts 349°
2026-05-04 23:04 29.22037 -81.44119 26080 ft 436 kts 349°
2026-05-04 23:04 29.25071 -81.44381 26465 ft 439 kts 349°
2026-05-04 23:04 29.28121 -81.44656 26883 ft 441 kts 349°
2026-05-04 23:05 29.31181 -81.44941 27268 ft 443 kts 348°
2026-05-04 23:05 29.34257 -81.45233 27648 ft 444 kts 348°
2026-05-04 23:05 29.37348 -81.45529 28015 ft 446 kts 348°
2026-05-04 23:05 29.40449 -81.45827 28367 ft 449 kts 348°
2026-05-04 23:06 29.43524 -81.46123 28708 ft 451 kts 348°
2026-05-04 23:06 29.46654 -81.46423 29097 ft 452 kts 348°
2026-05-04 23:06 29.49781 -81.46721 29634 ft 449 kts 348°
2026-05-04 23:06 29.52886 -81.47017 30205 ft 446 kts 348°
2026-05-04 23:07 29.55967 -81.47312 30686 ft 444 kts 348°
2026-05-04 23:07 29.59047 -81.47607 31073 ft 444 kts 348°
2026-05-04 23:07 29.62126 -81.47890 31412 ft 444 kts 348°
2026-05-04 23:07 29.65209 -81.48165 31794 ft 444 kts 348°
2026-05-04 23:08 29.68282 -81.48436 32206 ft 442 kts 348°
2026-05-04 23:08 29.71348 -81.48709 32596 ft 441 kts 348°
2026-05-04 23:08 29.74408 -81.48982 32971 ft 441 kts 347°
2026-05-04 23:08 29.77476 -81.49260 33084 ft 446 kts 347°
2026-05-04 23:09 29.83737 -81.49829 33100 ft 456 kts 348°
2026-05-04 23:09 29.90023 -81.50603 33087 ft 448 kts 339°
2026-05-04 23:10 29.95924 -81.52638 33077 ft 441 kts 334°
2026-05-04 23:10 30.01764 -81.54804 33095 ft 441 kts 335°
2026-05-04 23:11 30.06625 -81.56576 33078 ft 441 kts 335°
2026-05-04 23:11 30.12478 -81.58679 33076 ft 440 kts 335°
2026-05-04 23:12 30.18333 -81.60775 33082 ft 441 kts 335°
2026-05-04 23:12 30.24183 -81.62870 33085 ft 440 kts 335°
2026-05-04 23:13 30.30025 -81.64966 33081 ft 439 kts 335°
2026-05-04 23:13 30.35858 -81.67062 33095 ft 438 kts 335°
2026-05-04 23:14 30.41671 -81.69153 33071 ft 437 kts 335°
2026-05-04 23:14 30.47464 -81.71240 33073 ft 435 kts 335°
2026-05-04 23:15 30.53242 -81.73325 33073 ft 434 kts 335°
2026-05-04 23:15 30.59007 -81.75408 33075 ft 433 kts 335°
2026-05-04 23:16 30.64618 -81.77790 33082 ft 424 kts 327°
2026-05-04 23:16 30.69879 -81.80861 33144 ft 423 kts 326°
2026-05-04 23:17 30.75124 -81.83970 33113 ft 423 kts 325°
2026-05-04 23:17 30.80373 -81.87045 33115 ft 422 kts 326°
2026-05-04 23:18 30.85617 -81.90094 33079 ft 421 kts 326°
2026-05-04 23:18 30.90811 -81.93110 33081 ft 419 kts 326°
2026-05-04 23:19 30.96020 -81.96138 33095 ft 418 kts 326°
2026-05-04 23:19 31.01223 -81.99167 33122 ft 418 kts 326°
2026-05-04 23:20 31.06428 -82.02204 33075 ft 419 kts 326°
2026-05-04 23:20 31.11643 -82.05248 33066 ft 419 kts 326°
2026-05-04 23:21 31.16864 -82.08299 33061 ft 420 kts 326°
2026-05-04 23:21 31.22090 -82.11357 33063 ft 420 kts 326°
2026-05-04 23:22 31.27324 -82.14423 33062 ft 421 kts 326°
2026-05-04 23:22 31.32573 -82.17504 33061 ft 423 kts 326°
2026-05-04 23:23 31.37839 -82.20597 33058 ft 424 kts 326°
2026-05-04 23:23 31.43118 -82.23701 33054 ft 425 kts 326°
2026-05-04 23:24 31.48402 -82.26812 33051 ft 425 kts 326°
2026-05-04 23:24 31.53695 -82.29932 33053 ft 426 kts 326°
2026-05-04 23:25 31.58986 -82.33056 33064 ft 427 kts 327°
2026-05-04 23:25 31.64293 -82.36193 33058 ft 427 kts 327°
2026-05-04 23:26 31.69603 -82.39335 33059 ft 428 kts 327°
2026-05-04 23:26 31.74880 -82.42462 33041 ft 427 kts 327°
2026-05-04 23:27 31.80183 -82.45608 33050 ft 427 kts 327°
2026-05-04 23:27 31.85474 -82.48753 33084 ft 426 kts 327°
2026-05-04 23:28 31.90766 -82.51902 33064 ft 427 kts 327°
2026-05-04 23:28 31.96027 -82.55137 33051 ft 424 kts 322°
2026-05-04 23:29 32.00581 -82.59433 33055 ft 419 kts 314°
2026-05-04 23:29 32.04962 -82.63969 33054 ft 420 kts 314°
2026-05-04 23:30 32.09371 -82.68499 33048 ft 421 kts 314°
2026-05-04 23:30 32.11587 -82.70765 32934 ft 423 kts 314°
2026-05-04 23:30 32.13812 -82.73040 32655 ft 423 kts 314°
2026-05-04 23:31 32.16045 -82.75321 32424 ft 426 kts 315°
2026-05-04 23:31 32.18297 -82.77624 32171 ft 430 kts 315°
2026-05-04 23:31 32.20555 -82.79933 31919 ft 429 kts 315°
2026-05-04 23:31 32.22810 -82.82240 31671 ft 429 kts 315°
2026-05-04 23:32 32.25063 -82.84548 31420 ft 429 kts 315°
2026-05-04 23:32 32.27315 -82.86857 31172 ft 429 kts 315°
2026-05-04 23:32 32.29569 -82.89170 30927 ft 429 kts 315°
2026-05-04 23:32 32.31826 -82.91488 30700 ft 430 kts 315°
2026-05-04 23:33 32.34087 -82.93811 30461 ft 431 kts 315°
2026-05-04 23:33 32.36357 -82.96144 30214 ft 433 kts 315°
2026-05-04 23:33 32.38630 -82.98483 29719 ft 433 kts 315°
2026-05-04 23:33 32.40898 -83.00813 29101 ft 427 kts 315°
2026-05-04 23:34 32.43132 -83.03108 28467 ft 423 kts 315°
2026-05-04 23:34 32.45336 -83.05375 27857 ft 417 kts 315°
2026-05-04 23:34 32.47515 -83.07620 27259 ft 413 kts 315°
2026-05-04 23:34 32.49668 -83.09840 26679 ft 408 kts 315°
2026-05-04 23:35 32.51800 -83.12040 26113 ft 404 kts 315°
2026-05-04 23:35 32.53912 -83.14221 25552 ft 401 kts 315°
2026-05-04 23:35 32.56004 -83.16383 24998 ft 398 kts 315°
2026-05-04 23:35 32.58082 -83.18531 24444 ft 395 kts 315°
2026-05-04 23:36 32.60148 -83.20668 23874 ft 393 kts 315°
2026-05-04 23:36 32.62200 -83.22796 23259 ft 391 kts 315°
2026-05-04 23:36 32.64241 -83.24913 22649 ft 388 kts 315°
2026-05-04 23:36 32.66266 -83.27015 22074 ft 385 kts 315°
2026-05-04 23:37 32.68246 -83.29073 21523 ft 382 kts 315°
2026-05-04 23:37 32.70235 -83.31141 20983 ft 379 kts 315°
2026-05-04 23:37 32.72209 -83.33195 20453 ft 376 kts 315°
2026-05-04 23:37 32.74173 -83.35240 19920 ft 374 kts 315°
2026-05-04 23:38 32.76123 -83.37272 19388 ft 372 kts 315°
2026-05-04 23:38 32.78065 -83.39296 18865 ft 371 kts 315°
2026-05-04 23:38 32.79999 -83.41314 18318 ft 370 kts 315°
2026-05-04 23:38 32.81930 -83.43330 17727 ft 369 kts 316°
2026-05-04 23:39 32.83852 -83.45338 17183 ft 366 kts 316°
2026-05-04 23:39 32.85761 -83.47333 16631 ft 364 kts 316°
2026-05-04 23:39 32.87659 -83.49318 16100 ft 362 kts 316°
2026-05-04 23:39 32.89545 -83.51291 15577 ft 360 kts 316°
2026-05-04 23:40 32.91418 -83.53252 15223 ft 354 kts 316°
2026-05-04 23:40 32.93234 -83.55152 15074 ft 342 kts 316°
2026-05-04 23:40 32.94997 -83.56997 14863 ft 334 kts 316°
2026-05-04 23:40 32.96732 -83.58814 14612 ft 332 kts 317°
2026-05-04 23:41 32.98485 -83.60651 14379 ft 339 kts 317°
2026-05-04 23:41 33.00253 -83.62505 14021 ft 338 kts 317°
2026-05-04 23:41 33.02014 -83.64351 13609 ft 335 kts 317°
2026-05-04 23:41 33.03749 -83.66170 13305 ft 330 kts 317°
2026-05-04 23:42 33.05467 -83.67972 13049 ft 328 kts 317°
2026-05-04 23:42 33.07185 -83.69777 12789 ft 331 kts 317°
2026-05-04 23:42 33.08906 -83.71586 12500 ft 326 kts 317°
2026-05-04 23:42 33.10601 -83.73368 12054 ft 325 kts 317°
2026-05-04 23:43 33.12273 -83.75125 11844 ft 311 kts 317°
2026-05-04 23:43 33.13851 -83.76784 11671 ft 295 kts 316°
2026-05-04 23:43 33.15360 -83.78375 11375 ft 285 kts 316°
2026-05-04 23:43 33.16834 -83.79933 10945 ft 282 kts 316°
2026-05-04 23:44 33.18302 -83.81486 10446 ft 282 kts 316°
2026-05-04 23:44 33.19749 -83.83058 9984 ft 281 kts 314°
2026-05-04 23:44 33.21131 -83.84695 9612 ft 278 kts 312°
2026-05-04 23:44 33.22482 -83.86327 9323 ft 276 kts 312°
2026-05-04 23:45 33.23845 -83.87971 9061 ft 281 kts 313°
2026-05-04 23:45 33.25224 -83.89625 8788 ft 281 kts 313°
2026-05-04 23:45 33.26607 -83.91278 8516 ft 281 kts 313°
2026-05-04 23:45 33.27984 -83.92919 8239 ft 276 kts 313°
2026-05-04 23:46 33.29316 -83.94507 8043 ft 264 kts 313°
2026-05-04 23:46 33.30573 -83.96007 7989 ft 247 kts 312°
2026-05-04 23:46 33.31751 -83.97415 7803 ft 241 kts 312°
2026-05-04 23:46 33.32931 -83.98830 7587 ft 240 kts 312°
2026-05-04 23:47 33.34105 -84.00237 7358 ft 238 kts 312°
2026-05-04 23:47 33.35275 -84.01638 7129 ft 238 kts 312°
2026-05-04 23:47 33.36624 -84.02776 6844 ft 243 kts 342°
2026-05-04 23:47 33.38308 -84.02950 6607 ft 243 kts 359°
2026-05-04 23:48 33.40000 -84.02965 6375 ft 243 kts 358°
2026-05-04 23:48 33.41691 -84.02994 6132 ft 243 kts 358°
2026-05-04 23:48 33.43375 -84.03026 6033 ft 242 kts 358°
2026-05-04 23:48 33.45062 -84.03059 6000 ft 243 kts 358°
2026-05-04 23:49 33.46745 -84.03104 5993 ft 241 kts 356°
2026-05-04 23:49 33.48420 -84.03189 5988 ft 241 kts 356°
2026-05-04 23:49 33.50091 -84.03287 5989 ft 241 kts 356°
2026-05-04 23:49 33.51767 -84.03387 5999 ft 241 kts 356°
2026-05-04 23:50 33.53450 -84.03488 5995 ft 242 kts 356°
2026-05-04 23:50 33.55132 -84.03585 5987 ft 242 kts 356°
2026-05-04 23:50 33.56814 -84.03692 5983 ft 242 kts 355°
2026-05-04 23:50 33.58420 -84.04158 5868 ft 235 kts 328°
2026-05-04 23:51 33.59575 -84.05482 5584 ft 230 kts 299°
2026-05-04 23:51 33.60355 -84.07157 5309 ft 231 kts 295°
2026-05-04 23:51 33.61097 -84.08868 5054 ft 231 kts 294°
2026-05-04 23:51 33.61833 -84.10580 4829 ft 231 kts 294°
2026-05-04 23:52 33.62565 -84.12289 4587 ft 230 kts 294°
2026-05-04 23:52 33.63141 -84.14053 4335 ft 226 kts 274°
2026-05-04 23:52 33.63159 -84.15911 4132 ft 222 kts 267°
2026-05-04 23:52 33.63183 -84.17768 4045 ft 223 kts 268°
2026-05-04 23:53 33.63202 -84.19626 4010 ft 222 kts 267°
2026-05-04 23:53 33.63206 -84.21468 4005 ft 220 kts 267°
2026-05-04 23:53 33.63204 -84.23297 3985 ft 217 kts 266°
2026-05-04 23:53 33.63200 -84.25106 3733 ft 215 kts 267°
2026-05-04 23:54 33.63197 -84.26879 3470 ft 210 kts 267°
2026-05-04 23:54 33.63194 -84.28590 3189 ft 200 kts 266°
2026-05-04 23:54 33.63193 -84.30212 2925 ft 190 kts 266°
2026-05-04 23:54 33.63190 -84.31750 2685 ft 178 kts 266°
2026-05-04 23:55 33.63188 -84.33188 2455 ft 166 kts 266°
2026-05-04 23:55 33.63187 -84.34485 2247 ft 150 kts 266°
2026-05-04 23:55 33.63184 -84.36787 1876 ft 131 kts 265°
2026-05-04 23:56 33.63183 -84.37874 1701 ft 133 kts 266°
2026-05-04 23:56 33.63182 -84.39004 1529 ft 136 kts 266°
2026-05-04 23:56 33.63182 -84.40135 1360 ft 135 kts 268°
2026-05-04 23:56 33.63195 -84.41278 1141 ft 138 kts 268°
2026-05-04 23:57 33.63190 -84.42403 1038 ft 134 kts 263°
2026-05-04 23:57 33.63182 -84.43353 1036 ft 85 kts 270°
2026-05-04 23:57 33.63183 -84.43807 1033 ft 30 kts 270°
2026-05-04 23:57 33.63192 -84.44035 1033 ft 16 kts 281°
2026-05-04 23:58 33.63226 -84.44156 1033 ft 15 kts 300°
2026-05-04 23:58 33.63276 -84.44263 1034 ft 14 kts 300°
2026-05-04 23:58 33.63325 -84.44366 1034 ft 14 kts 300°
2026-05-04 23:58 33.63358 -84.44471 1034 ft 13 kts 279°
2026-05-04 23:59 33.63362 -84.44579 1034 ft 13 kts 270°
2026-05-04 23:59 33.63362 -84.44685 1034 ft 12 kts 270°
2026-05-04 23:59 33.63362 -84.44754 1035 ft 12 kts 270°
2026-05-04 23:59 33.63361 -84.44854 1035 ft 12 kts 269°
2026-05-05 00:00 33.63353 -84.44952 1035 ft 12 kts 256°
2026-05-05 00:00 33.63339 -84.45015 1035 ft 11 kts 254°
2026-05-05 00:00 33.63320 -84.45137 1035 ft 11 kts 270°
2026-05-05 00:00 33.63321 -84.45228 1034 ft 11 kts 270°
2026-05-05 00:01 33.63357 -84.45294 1034 ft 10 kts 345°
2026-05-05 00:01 33.63429 -84.45296 1034 ft 10 kts
2026-05-05 00:01 33.63498 -84.45295 1034 ft 10 kts
2026-05-05 00:01 33.63566 -84.45294 1034 ft 10 kts 360°
2026-05-05 00:02 33.63619 -84.45260 1034 ft 9 kts 70°
2026-05-05 00:02 33.63624 -84.45177 1034 ft 12 kts 90°
2026-05-05 00:02 33.63623 -84.45054 1034 ft 17 kts 90°
2026-05-05 00:02 33.63636 -84.44905 1034 ft 18 kts 77°
2026-05-05 00:03 33.63663 -84.44760 1034 ft 17 kts 83°
2026-05-05 00:03 33.63664 -84.44617 1035 ft 17 kts 90°
2026-05-05 00:03 33.63664 -84.44480 1035 ft 16 kts 90°
2026-05-05 00:03 33.63665 -84.44347 1035 ft 16 kts 89°
2026-05-05 00:04 33.63664 -84.44220 1035 ft 15 kts 91°
2026-05-05 00:04 33.63670 -84.44152 1035 ft 7 kts 66°
2026-05-05 00:04 33.63706 -84.44117 1035 ft 7 kts 12°
2026-05-05 00:04 33.63753 -84.44117 1035 ft 7 kts 359°
2026-05-05 00:05 33.63790 -84.44143 1035 ft 7 kts 287°
2026-05-05 00:05 33.63790 -84.44185 1035 ft 2 kts 270°
2026-05-05 00:05 33.63790 -84.44199 1035 ft 0 kts 270°